User: anonymous   Login
Location: Irma
(52.9170°N, 111.2330°W)
Time: 11:54:50
(UTC-07:00)
Language:

Cosmos 1633 Rocket - Orbit

View from above orbital plane
View from above orbital plane
View from above satellite
View from above satellite

Ground track
Ground track

The orbit data is extracted from the following two-line orbital elements,

1 15593U 85020B   17349.87795899 +.00000071 +00000-0 +55660-5 0  9999
2 15593 082.5389 092.6409 0012334 153.2545 346.4085 14.84303889750154
Epoch (UTC): 15 December 2017 21:04:15
Eccentricity: 0.0012334
inclination: 82.5389°
perigee height: 607 km
apogee height: 624 km
right ascension of ascending node: 92.6409°
argument of perigee: 153.2545°
revolutions per day: 14.84303889
mean anomaly at epoch: 346.4085°
orbit number at epoch: 75015

The dashed part of the orbit path shows where the satellite is in the earth's shadow,  

DLR